Time,TemperatureF,DewpointF,PressureIn,WindDirection,WindDirectionDegrees,WindSpeedMPH,WindSpeedGustMPH,Humidity,HourlyPrecipIn,Conditions,Clouds,dailyrainin,SolarRadiationWatts/m^2,SoftwareType,DateUTC
2013-01-25 00:01:00,36.0,26.0,-100.00,NNE,32,0.0,2.0,68,0.00,,,0.00,1.000000,,2013-01-25 07:01:00,
2013-01-25 00:11:00,36.0,26.0,-100.00,NNE,32,0.0,2.0,68,0.00,,,0.00,1.000000,,2013-01-25 07:11:00,
2013-01-25 00:32:00,34.0,30.0,-100.00,East,91,0.0,2.0,85,0.00,,,0.00,1.000000,,2013-01-25 07:32:00,
2013-01-25 00:42:00,34.0,30.0,-100.00,East,91,0.0,2.0,85,0.00,,,0.00,1.000000,,2013-01-25 07:42:00,
2013-01-25 00:52:00,34.0,30.0,-100.00,East,91,0.0,2.0,85,0.00,,,0.00,1.000000,,2013-01-25 07:52:00,
2013-01-25 01:01:00,34.0,30.0,-100.00,East,91,0.0,2.0,85,0.00,,,0.00,1.000000,,2013-01-25 08:01:00,
2013-01-25 01:11:00,34.0,30.0,-100.00,East,91,0.0,2.0,85,0.00,,,0.00,1.000000,,2013-01-25 08:11:00,
2013-01-25 01:42:00,35.0,30.0,-100.00,North,1,0.0,3.0,83,0.00,,,0.00,1.000000,,2013-01-25 08:42:00,
2013-01-25 01:52:00,35.0,30.0,-100.00,North,1,0.0,3.0,83,0.00,,,0.00,1.000000,,2013-01-25 08:52:00,
2013-01-25 02:01:00,35.0,30.0,-100.00,North,1,0.0,3.0,83,0.00,,,0.00,1.000000,,2013-01-25 09:01:00,
2013-01-25 02:11:00,35.0,30.0,-100.00,North,1,0.0,3.0,83,0.00,,,0.00,1.000000,,2013-01-25 09:11:00,
2013-01-25 02:42:00,35.0,30.0,-100.00,NW,305,2.0,4.0,82,0.00,,,0.00,1.000000,,2013-01-25 09:42:00,
2013-01-25 02:52:00,35.0,30.0,-100.00,NW,305,2.0,4.0,82,0.00,,,0.00,1.000000,,2013-01-25 09:52:00,
2013-01-25 03:01:00,35.0,30.0,-100.00,NW,305,2.0,4.0,82,0.00,,,0.00,1.000000,,2013-01-25 10:01:00,
2013-01-25 03:11:00,35.0,30.0,-100.00,NW,305,2.0,4.0,82,0.00,,,0.00,1.000000,,2013-01-25 10:11:00,
2013-01-25 03:42:00,35.0,30.0,-100.00,NNW,341,1.0,3.0,81,0.00,,,0.00,1.000000,,2013-01-25 10:42:00,
2013-01-25 03:52:00,35.0,30.0,-100.00,NNW,341,1.0,3.0,81,0.00,,,0.00,1.000000,,2013-01-25 10:52:00,
2013-01-25 04:02:00,35.0,30.0,-100.00,NNW,341,1.0,3.0,81,0.00,,,0.00,1.000000,,2013-01-25 11:02:00,
2013-01-25 04:11:00,35.0,30.0,-100.00,NNW,341,1.0,3.0,81,0.00,,,0.00,1.000000,,2013-01-25 11:11:00,
2013-01-25 04:42:00,35.0,30.0,-100.00,NNW,334,1.0,3.0,81,0.00,,,0.00,1.000000,,2013-01-25 11:42:00,
2013-01-25 04:52:00,35.0,30.0,-100.00,NNW,334,1.0,3.0,81,0.00,,,0.00,1.000000,,2013-01-25 11:52:00,
2013-01-25 05:02:00,35.0,30.0,-100.00,NNW,334,1.0,3.0,81,0.00,,,0.00,1.000000,,2013-01-25 12:02:00,
2013-01-25 05:11:00,35.0,30.0,-100.00,NNW,334,1.0,3.0,81,0.00,,,0.00,1.000000,,2013-01-25 12:11:00,
2013-01-25 05:33:00,35.0,30.0,-100.00,North,350,0.0,2.0,81,0.00,,,0.00,1.000000,,2013-01-25 12:33:00,
2013-01-25 05:42:00,35.0,30.0,-100.00,North,350,0.0,2.0,81,0.00,,,0.00,1.000000,,2013-01-25 12:42:00,
2013-01-25 05:53:00,35.0,30.0,-100.00,North,350,0.0,2.0,81,0.00,,,0.00,1.000000,,2013-01-25 12:53:00,
2013-01-25 06:02:00,35.0,30.0,-100.00,North,350,0.0,2.0,81,0.00,,,0.00,1.000000,,2013-01-25 13:02:00,
2013-01-25 06:11:00,35.0,30.0,-100.00,North,350,0.0,2.0,81,0.00,,,0.00,1.000000,,2013-01-25 13:11:00,
2013-01-25 06:43:00,35.0,30.0,-100.00,NNW,327,0.0,3.0,82,0.00,,,0.00,1.000000,,2013-01-25 13:43:00,
2013-01-25 06:52:00,35.0,30.0,-100.00,NNW,327,0.0,3.0,82,0.00,,,0.00,1.000000,,2013-01-25 13:52:00,
2013-01-25 07:02:00,35.0,30.0,-100.00,NNW,327,0.0,3.0,82,0.00,,,0.00,1.000000,,2013-01-25 14:02:00,
2013-01-25 07:12:00,35.0,30.0,-100.00,NNW,327,0.0,3.0,82,0.00,,,0.00,1.000000,,2013-01-25 14:12:00,
2013-01-25 07:42:00,35.0,30.0,-100.00,West,274,1.0,2.0,82,0.00,,,0.00,1.000000,,2013-01-25 14:42:00,
2013-01-25 07:53:00,35.0,30.0,-100.00,West,274,1.0,2.0,82,0.00,,,0.00,1.000000,,2013-01-25 14:53:00,
2013-01-25 08:02:00,35.0,30.0,-100.00,West,274,1.0,2.0,82,0.00,,,0.00,1.000000,,2013-01-25 15:02:00,
2013-01-25 08:11:00,35.0,30.0,-100.00,West,274,1.0,2.0,82,0.00,,,0.00,1.000000,,2013-01-25 15:11:00,
2013-01-25 08:43:00,36.0,31.0,-100.00,NNW,337,0.0,2.0,81,0.00,,,0.00,13.000000,,2013-01-25 15:43:00,
2013-01-25 08:53:00,36.0,31.0,-100.00,NNW,337,0.0,2.0,81,0.00,,,0.00,13.000000,,2013-01-25 15:53:00,
2013-01-25 09:02:00,36.0,31.0,-100.00,NNW,337,0.0,2.0,81,0.00,,,0.00,13.000000,,2013-01-25 16:02:00,
2013-01-25 09:11:00,36.0,31.0,-100.00,NNW,337,0.0,2.0,81,0.00,,,0.00,13.000000,,2013-01-25 16:11:00,
2013-01-25 09:43:00,39.0,31.0,-100.00,NNW,329,2.0,3.0,74,0.00,,,0.00,94.000000,,2013-01-25 16:43:00,
2013-01-25 09:53:00,39.0,31.0,-100.00,NNW,329,2.0,3.0,74,0.00,,,0.00,94.000000,,2013-01-25 16:53:00,
2013-01-25 10:02:00,39.0,31.0,-100.00,NNW,329,2.0,3.0,74,0.00,,,0.00,94.000000,,2013-01-25 17:02:00,
2013-01-25 10:11:00,39.0,31.0,-100.00,NNW,329,2.0,3.0,74,0.00,,,0.00,94.000000,,2013-01-25 17:11:00,
2013-01-25 10:43:00,43.0,34.0,-100.00,North,3,1.0,6.0,69,0.00,,,0.00,160.000000,,2013-01-25 17:43:00,
2013-01-25 10:53:00,43.0,34.0,-100.00,North,3,1.0,6.0,69,0.00,,,0.00,160.000000,,2013-01-25 17:53:00,
2013-01-25 11:02:00,43.0,34.0,-100.00,North,3,1.0,6.0,69,0.00,,,0.00,160.000000,,2013-01-25 18:02:00,
2013-01-25 11:11:00,43.0,34.0,-100.00,North,3,1.0,6.0,69,0.00,,,0.00,160.000000,,2013-01-25 18:11:00,
2013-01-25 11:43:00,44.0,34.0,-100.00,NE,35,2.0,5.0,67,0.00,,,0.00,270.000000,,2013-01-25 18:43:00,
2013-01-25 11:52:00,44.0,34.0,-100.00,NE,35,2.0,5.0,67,0.00,,,0.00,270.000000,,2013-01-25 18:52:00,
2013-01-25 12:02:00,44.0,34.0,-100.00,NE,35,2.0,5.0,67,0.00,,,0.00,270.000000,,2013-01-25 19:02:00,
2013-01-25 12:12:00,44.0,34.0,-100.00,NE,35,2.0,5.0,67,0.00,,,0.00,270.000000,,2013-01-25 19:12:00,
2013-01-25 12:42:00,46.0,35.0,-100.00,NE,50,3.0,6.0,65,0.00,,,0.00,227.000000,,2013-01-25 19:42:00,
2013-01-25 12:53:00,46.0,35.0,-100.00,NE,50,3.0,6.0,65,0.00,,,0.00,227.000000,,2013-01-25 19:53:00,
2013-01-25 13:02:00,46.0,35.0,-100.00,NE,50,3.0,6.0,65,0.00,,,0.00,227.000000,,2013-01-25 20:02:00,
2013-01-25 13:11:00,46.0,35.0,-100.00,NE,50,3.0,6.0,65,0.00,,,0.00,227.000000,,2013-01-25 20:11:00,
2013-01-25 13:43:00,49.0,36.0,-100.00,NNE,19,1.0,5.0,61,0.00,,,-99.99,341.000000,,2013-01-25 20:43:00,
2013-01-25 14:11:00,49.0,36.0,-100.00,NNE,19,1.0,5.0,61,0.00,,,-99.99,341.000000,,2013-01-25 21:11:00,
2013-01-25 14:43:00,50.0,36.0,-100.00,SW,221,2.0,4.0,59,-99.99,,,0.00,407.000000,,2013-01-25 21:43:00,
2013-01-25 14:52:00,50.0,36.0,-100.00,SW,221,2.0,4.0,59,-99.99,,,0.00,407.000000,,2013-01-25 21:52:00,
2013-01-25 15:11:00,50.0,36.0,-100.00,SW,221,2.0,4.0,59,-99.99,,,0.00,407.000000,,2013-01-25 22:11:00,
2013-01-25 15:42:00,48.0,36.0,-100.00,NW,323,2.0,4.0,63,0.00,,,0.00,160.000000,,2013-01-25 22:42:00,
2013-01-25 15:52:00,48.0,36.0,-100.00,NW,323,2.0,4.0,63,0.00,,,0.00,160.000000,,2013-01-25 22:52:00,
2013-01-25 16:02:00,48.0,36.0,-100.00,NW,323,2.0,4.0,63,0.00,,,0.00,160.000000,,2013-01-25 23:02:00,
2013-01-25 16:11:00,48.0,36.0,-100.00,NW,323,2.0,4.0,63,0.00,,,0.00,160.000000,,2013-01-25 23:11:00,
2013-01-25 16:42:00,47.0,35.0,-100.00,NE,53,2.0,8.0,64,0.00,,,0.00,161.000000,,2013-01-25 23:42:00,
2013-01-25 16:52:00,47.0,35.0,-100.00,NE,53,2.0,8.0,64,0.00,,,0.00,161.000000,,2013-01-25 23:52:00,
2013-01-25 17:01:00,47.0,35.0,-100.00,NE,53,2.0,8.0,64,0.00,,,0.00,161.000000,,2013-01-26 00:01:00,
2013-01-25 17:11:00,47.0,35.0,-100.00,NE,53,2.0,8.0,64,0.00,,,0.00,161.000000,,2013-01-26 00:11:00,
2013-01-25 17:42:00,45.0,35.0,-100.00,ENE,68,0.0,5.0,67,0.00,,,0.00,87.000000,,2013-01-26 00:42:00,
2013-01-25 17:53:00,45.0,35.0,-100.00,ENE,68,0.0,5.0,67,0.00,,,0.00,87.000000,,2013-01-26 00:53:00,
2013-01-25 18:01:00,45.0,35.0,-100.00,ENE,68,0.0,5.0,67,0.00,,,0.00,87.000000,,2013-01-26 01:01:00,
2013-01-25 18:11:00,45.0,35.0,-100.00,ENE,68,0.0,5.0,67,0.00,,,0.00,87.000000,,2013-01-26 01:11:00,
2013-01-25 18:32:00,40.0,32.0,-100.00,NW,315,1.0,2.0,74,0.00,,,-99.99,3.000000,,2013-01-26 01:32:00,
2013-01-25 18:42:00,40.0,32.0,-100.00,NW,315,1.0,2.0,74,0.00,,,-99.99,3.000000,,2013-01-26 01:42:00,
2013-01-25 18:52:00,40.0,32.0,-100.00,NW,315,1.0,2.0,74,0.00,,,-99.99,3.000000,,2013-01-26 01:52:00,
2013-01-25 19:01:00,40.0,32.0,-100.00,NW,315,1.0,2.0,74,0.00,,,-99.99,3.000000,,2013-01-26 02:01:00,
2013-01-25 19:11:00,40.0,32.0,-100.00,NW,315,1.0,2.0,74,0.00,,,-99.99,3.000000,,2013-01-26 02:11:00,
2013-01-25 19:42:00,38.0,32.0,-100.00,NNW,331,2.0,3.0,79,0.00,,,0.00,1.000000,,2013-01-26 02:42:00,
2013-01-25 19:52:00,38.0,32.0,-100.00,NNW,331,2.0,3.0,79,0.00,,,0.00,1.000000,,2013-01-26 02:52:00,
2013-01-25 20:01:00,38.0,32.0,-100.00,NNW,331,2.0,3.0,79,0.00,,,0.00,1.000000,,2013-01-26 03:01:00,
2013-01-25 20:11:00,38.0,32.0,-100.00,NNW,331,2.0,3.0,79,0.00,,,0.00,1.000000,,2013-01-26 03:11:00,
2013-01-25 20:32:00,38.0,33.0,-100.00,West,278,2.0,3.0,81,0.00,,,0.00,1.000000,,2013-01-26 03:32:00,
2013-01-25 20:43:00,38.0,33.0,-100.00,West,278,2.0,3.0,81,0.00,,,0.00,1.000000,,2013-01-26 03:43:00,
2013-01-25 20:52:00,38.0,33.0,-100.00,West,278,2.0,3.0,81,0.00,,,0.00,1.000000,,2013-01-26 03:52:00,
2013-01-25 21:01:00,38.0,33.0,-100.00,West,278,2.0,3.0,81,0.00,,,0.00,1.000000,,2013-01-26 04:01:00,
2013-01-25 21:12:00,38.0,33.0,-100.00,West,278,2.0,3.0,81,0.00,,,0.00,1.000000,,2013-01-26 04:12:00,
2013-01-25 21:32:00,37.0,32.0,-100.00,West,279,0.0,5.0,82,0.00,,,0.00,1.000000,,2013-01-26 04:32:00,
2013-01-25 21:42:00,37.0,32.0,-100.00,West,279,0.0,5.0,82,0.00,,,0.00,1.000000,,2013-01-26 04:42:00,
2013-01-25 21:52:00,37.0,32.0,-100.00,West,279,0.0,5.0,82,0.00,,,0.00,1.000000,,2013-01-26 04:52:00,
2013-01-25 22:03:00,37.0,32.0,-100.00,West,279,0.0,5.0,82,0.00,,,0.00,1.000000,,2013-01-26 05:03:00,
2013-01-25 22:12:00,37.0,32.0,-100.00,West,279,0.0,5.0,82,0.00,,,0.00,1.000000,,2013-01-26 05:12:00,
2013-01-25 22:33:00,37.0,32.0,-100.00,NNW,331,2.0,4.0,83,0.00,,,0.00,1.000000,,2013-01-26 05:33:00,
2013-01-25 22:42:00,37.0,32.0,-100.00,NNW,331,2.0,4.0,83,0.00,,,0.00,1.000000,,2013-01-26 05:42:00,
2013-01-25 22:52:00,37.0,32.0,-100.00,NNW,331,2.0,4.0,83,0.00,,,0.00,1.000000,,2013-01-26 05:52:00,
2013-01-25 23:02:00,37.0,32.0,-100.00,NNW,331,2.0,4.0,83,0.00,,,0.00,1.000000,,2013-01-26 06:02:00,
2013-01-25 23:11:00,37.0,32.0,-100.00,NNW,331,2.0,4.0,83,0.00,,,0.00,1.000000,,2013-01-26 06:11:00,
2013-01-25 23:32:00,37.0,32.0,-100.00,WNW,303,2.0,4.0,83,0.00,,,0.00,1.000000,,2013-01-26 06:32:00,
2013-01-25 23:42:00,37.0,32.0,-100.00,WNW,303,2.0,4.0,83,0.00,,,0.00,1.000000,,2013-01-26 06:42:00,
2013-01-25 23:52:00,37.0,32.0,-100.00,WNW,303,2.0,4.0,83,0.00,,,0.00,1.000000,,2013-01-26 06:52:00,